PBO Station Position Time Series. Reference Frame : NAM14
Format Version,1.1.0
4-character ID,OAKH
Station name,Oakdale
Begin Date, 2004-04-07
End Date, 2019-10-07
Release Date, 2019-10-08
Reference position, 30.8155070559 North Latitude, -92.6569813127 East Longitude, 20.21853 meters elevation,
Date, North (mm), East (mm), Vertical (mm), North Std. Deviation (mm), East Std. Deviation (mm),              Vertical Std. Deviation (mm), Quality,
2004-04-07,0.00, 0.00, 0.00, 1.90, 1.79, 7.98, repro,
2004-04-08,0.07, 1.36, 2.21, 1.86, 1.73, 7.78, repro,
2004-04-09,-1.12, 0.72, -8.79, 1.85, 1.71, 7.71, repro,
2004-04-10,-1.84, 1.29, -1.90, 1.86, 1.72, 7.74, repro,
2004-04-11,-1.13, 2.32, -4.75, 1.86, 1.74, 7.78, repro,
2004-04-12,-1.51, 1.13, -3.06, 1.84, 1.72, 7.65, repro,
2004-04-13,-0.03, 0.26, -9.75, 1.92, 1.75, 7.86, repro,
2004-04-14,0.32, 1.15, -8.98, 1.91, 1.74, 7.83, repro,
2004-04-15,1.57, 1.63, -9.77, 1.83, 1.70, 7.58, repro,
2004-04-16,-0.16, 2.09, -10.34, 1.90, 1.77, 7.96, repro,
2004-04-17,-0.62, 1.93, -9.41, 1.98, 1.89, 8.12, repro,
2004-04-18,-0.70, 1.72, -8.11, 1.92, 1.79, 8.02, repro,
2004-04-19,-0.45, 2.49, -5.60, 1.89, 1.75, 7.85, repro,
2004-04-20,-0.10, 0.68, 3.87, 1.95, 1.81, 8.07, repro,
2004-04-21,-0.66, 1.54, 7.46, 1.92, 1.79, 8.05, repro,
2004-04-22,-0.24, 2.57, -4.59, 1.94, 1.85, 8.32, repro,
2004-04-23,-0.54, 0.84, -0.49, 1.90, 1.81, 8.06, repro,
2004-04-24,-2.51, 2.36, 4.66, 2.14, 1.95, 9.13, repro,
2004-04-25,-2.03, 1.42, -12.10, 1.91, 1.80, 8.06, repro,
2004-04-26,-1.15, -1.68, -4.74, 1.95, 1.87, 8.26, repro,
2004-04-27,-1.56, 1.17, -6.16, 2.01, 1.92, 8.54, repro,
2004-04-28,0.11, 0.74, -8.43, 1.96, 1.86, 8.20, repro,
2004-04-29,-0.18, 3.28, 10.43, 1.93, 1.82, 8.13, repro,
2004-04-30,1.57, 4.00, -5.41, 2.16, 2.06, 9.16, repro,
2004-05-02,-1.09, 2.50, -8.68, 2.71, 2.44, 11.54, repro,
2004-05-03,-1.84, 0.57, -14.20, 2.02, 1.89, 8.48, repro,
2004-05-04,-1.66, 1.85, -7.49, 2.11, 1.99, 8.66, repro,
2004-05-05,-1.80, 2.24, -2.84, 2.06, 1.91, 8.72, repro,
2004-05-06,-1.08, 2.57, -5.51, 1.98, 1.85, 8.49, repro,
2004-05-07,-0.97, 1.47, -11.81, 2.02, 1.90, 8.51, repro,
2004-05-08,-0.68, 3.88, -3.94, 2.03, 1.92, 8.60, repro,
2004-05-09,-1.51, 3.11, -8.97, 2.01, 1.90, 8.34, repro,
2004-05-10,-1.76, 4.44, -4.35, 2.00, 1.87, 8.50, repro,
2004-05-11,-2.35, 1.07, -1.59, 1.99, 1.89, 8.33, repro,
2004-05-12,0.29, 1.15, -4.56, 2.02, 1.94, 8.66, repro,
2004-05-13,-2.86, 3.12, -11.93, 2.07, 1.88, 8.64, repro,
2004-05-14,-2.57, 0.63, -2.43, 1.95, 1.79, 8.02, repro,
2004-05-15,-4.09, 2.29, -11.83, 1.84, 1.71, 7.66, repro,
2004-05-16,-0.25, 1.15, -8.27, 1.97, 1.85, 8.38, repro,
2004-05-17,-2.04, 4.89, -3.80, 1.94, 1.83, 8.04, repro,
2004-05-18,-1.06, 5.16, -9.14, 2.04, 1.94, 8.64, repro,
2004-05-19,-2.53, 3.53, -9.73, 1.99, 1.87, 8.30, repro,
2004-05-20,-1.89, 3.14, -2.95, 1.87, 1.75, 7.79, repro,
2004-05-21,-2.51, 3.44, -15.35, 1.97, 1.79, 8.05, repro,
2004-05-22,-3.75, 2.18, 4.72, 1.86, 1.72, 7.70, repro,
2004-05-23,-3.34, 3.49, 3.68, 1.83, 1.72, 7.61, repro,
2004-05-24,-1.29, 3.10, -5.95, 1.87, 1.73, 7.69, repro,
2004-05-25,-1.88, 2.56, 1.49, 1.90, 1.76, 7.76, repro,
2004-05-26,-2.49, 2.38, 3.90, 1.84, 1.74, 7.66, repro,
2004-05-27,-2.95, 2.57, 8.06, 1.87, 1.76, 7.76, repro,
2004-05-28,-2.94, 2.03, 8.02, 1.94, 1.83, 7.95, repro,
2004-05-29,-1.56, 3.03, 4.25, 1.91, 1.80, 7.99, repro,
2004-05-30,-2.72, 2.14, 4.88, 1.85, 1.73, 7.63, repro,
2004-05-31,-2.98, 0.40, 5.57, 1.87, 1.77, 7.79, repro,
2004-06-01,-0.08, 4.51, 10.19, 1.94, 1.80, 8.23, repro,
2004-06-02,-1.87, 4.98, 11.46, 2.06, 1.99, 8.36, repro,
2004-06-03,-1.36, 2.08, -7.83, 2.16, 1.93, 9.09, repro,
2004-06-04,-1.08, 1.25, -2.98, 1.86, 1.73, 7.66, repro,
2004-06-05,-0.95, 2.15, 10.91, 1.89, 1.81, 8.07, repro,
2004-06-06,-0.35, 2.97, -0.39, 2.03, 1.95, 8.44, repro,
2004-06-07,-1.50, 2.26, 7.67, 1.86, 1.76, 7.81, repro,
2004-06-08,-0.08, 1.90, -7.80, 1.87, 1.78, 7.86, repro,
2004-06-09,-2.27, 1.75, 3.41, 1.88, 1.76, 7.80, repro,
2004-06-10,-1.39, -0.90, 9.31, 1.94, 1.84, 8.10, repro,
2004-06-11,-1.72, 3.75, 7.67, 1.91, 1.76, 7.92, repro,
2004-06-12,-1.91, 2.83, -0.35, 1.91, 1.85, 8.13, repro,
2004-06-13,-0.22, 2.68, 0.95, 1.85, 1.72, 7.68, repro,
2004-06-14,-0.96, 1.35, -10.79, 2.21, 2.02, 9.34, repro,
2004-06-15,0.36, 4.52, 0.52, 2.05, 1.97, 8.69, repro,
2004-06-16,-4.06, -0.57, 15.73, 2.00, 1.91, 8.54, repro,
2004-06-17,-1.05, 2.28, -2.88, 2.02, 1.92, 8.46, repro,
2004-06-18,-0.95, 0.15, -6.77, 1.93, 1.81, 8.18, repro,
2004-06-19,-2.04, 5.31, 3.82, 2.01, 1.85, 8.33, repro,
2004-06-20,-0.26, 1.36, -3.81, 2.00, 1.83, 8.14, repro,
2004-06-21,-0.22, 3.52, -2.52, 2.01, 1.88, 8.68, repro,
2004-06-22,-3.92, 4.24, 9.43, 2.17, 2.15, 9.53, repro,
2004-06-23,1.37, 4.57, 3.68, 1.97, 1.88, 8.36, repro,
2004-06-24,1.97, 0.84, 3.22, 1.99, 1.89, 8.25, repro,
2004-06-25,-0.66, 2.50, -6.77, 1.99, 1.86, 8.21, repro,
2004-06-26,-0.99, 2.65, -3.06, 1.89, 1.74, 7.84, repro,
2004-06-27,-1.06, 0.01, -8.80, 2.12, 2.02, 8.91, repro,
2004-06-28,-2.31, 1.58, -14.45, 2.02, 1.95, 8.37, repro,
2004-06-29,-2.18, 4.53, -10.46, 1.98, 1.84, 8.30, repro,
2004-06-30,-3.48, 4.53, -12.67, 1.95, 1.85, 8.19, repro,
2004-07-01,-1.67, 4.18, -2.39, 1.95, 1.77, 8.00, repro,
2004-07-02,-4.66, 2.02, -4.84, 2.23, 2.11, 9.39, repro,
2004-07-03,-2.58, 1.80, 3.35, 1.92, 1.78, 8.07, repro,
2004-07-04,-1.14, 2.01, -1.29, 1.90, 1.75, 7.91, repro,
2004-07-05,-1.71, 3.50, -6.41, 2.14, 2.15, 9.50, repro,
2004-07-06,-4.99, 3.27, -3.64, 2.04, 1.99, 9.16, repro,
2004-07-07,0.83, 2.60, 3.43, 1.86, 1.75, 7.83, repro,
2004-07-08,-3.97, 3.76, 14.27, 2.01, 1.88, 8.23, repro,
2004-07-09,-1.48, 1.27, -15.01, 2.01, 1.79, 8.23, repro,
2004-07-10,-3.22, 2.45, -3.23, 2.05, 1.93, 8.57, repro,
2004-07-11,-2.41, 2.94, -1.36, 1.89, 1.81, 8.05, repro,
2004-07-12,-2.17, 3.09, -7.19, 1.95, 1.78, 8.11, repro,
2004-07-13,-0.62, 3.29, -4.41, 1.84, 1.70, 7.59, repro,
2004-07-14,-0.75, 2.24, 3.97, 1.90, 1.75, 7.84, repro,
2004-07-15,0.80, 2.58, -5.44, 1.87, 1.75, 7.76, repro,
2004-07-16,-1.19, 0.75, -5.94, 2.04, 1.93, 8.38, repro,
2004-07-17,-1.53, 1.14, 2.33, 1.87, 1.80, 7.86, repro,
2004-07-18,-1.57, 0.74, 9.98, 1.91, 1.77, 7.89, repro,
2004-07-19,-1.12, 0.71, -4.10, 1.86, 1.69, 7.66, repro,
2004-07-20,-0.24, 2.12, -2.42, 1.85, 1.69, 7.67, repro,
2004-07-21,-1.17, 0.88, -0.04, 2.14, 1.87, 8.48, repro,
2004-07-22,0.93, 0.78, -2.14, 1.90, 1.72, 7.86, repro,
2004-07-23,-1.11, 0.81, 4.17, 1.82, 1.69, 7.58, repro,
2004-07-24,-1.93, 0.79, 2.02, 1.93, 1.86, 8.27, repro,
2004-07-25,1.38, 1.38, 6.75, 2.26, 1.93, 9.26, repro,
2004-07-26,-1.49, 2.45, -0.54, 2.18, 1.86, 9.00, repro,
2004-07-27,0.11, 0.64, -4.00, 1.87, 1.70, 7.64, repro,
2004-07-28,-0.67, 0.35, -6.39, 1.81, 1.68, 7.51, repro,
2004-07-29,0.36, 2.04, -1.76, 1.89, 1.78, 7.93, repro,
2004-07-30,-2.70, 1.96, -2.26, 2.07, 2.07, 9.16, repro,
2004-07-31,-1.83, 2.45, -1.19, 1.85, 1.68, 7.65, repro,
2004-08-01,-2.88, 1.48, 2.41, 1.93, 1.79, 8.11, repro,
2004-08-02,-2.45, -0.06, 1.19, 1.82, 1.68, 7.60, repro,
2004-08-03,-0.97, 1.00, -1.15, 1.85, 1.71, 7.61, repro,
2004-08-04,-0.52, -0.47, 11.10, 1.98, 1.77, 8.00, repro,
2004-08-05,-2.51, 0.85, 10.68, 2.21, 1.97, 9.36, repro,
2004-08-06,2.08, -0.44, 17.75, 2.04, 1.78, 8.36, repro,
2004-08-07,-1.00, 0.75, 6.39, 1.89, 1.70, 7.92, repro,
2004-08-08,-0.14, 1.13, 4.39, 1.81, 1.67, 7.48, repro,
2004-08-09,-0.66, 2.95, 4.57, 1.81, 1.68, 7.54, repro,
2004-08-10,-0.48, 0.48, 12.13, 1.83, 1.69, 7.68, repro,
2004-08-11,-1.02, 0.52, 5.84, 1.83, 1.69, 7.64, repro,
2004-08-12,-0.87, 2.76, 9.62, 1.90, 1.75, 7.93, repro,
2004-08-13,0.12, -0.28, -2.23, 1.87, 1.71, 7.65, repro,
2004-08-14,0.13, 0.16, -1.60, 1.87, 1.68, 7.75, repro,
2004-08-15,-0.08, 0.02, 3.84, 1.87, 1.68, 7.74, repro,
2004-08-16,-0.42, 1.10, 0.28, 1.86, 1.73, 7.76, repro,
2004-08-17,1.23, 0.42, 6.68, 1.87, 1.67, 7.75, repro,
2004-08-18,-0.05, 0.53, 3.50, 1.83, 1.66, 7.61, repro,
2004-08-19,-1.68, 1.37, 4.47, 2.03, 1.95, 8.62, repro,
2004-08-20,-2.36, 1.61, 21.05, 2.18, 1.99, 9.20, repro,
2004-08-21,-0.50, 1.88, 23.70, 1.98, 1.89, 8.60, repro,
2004-08-22,-3.41, -0.52, 20.26, 2.08, 1.88, 8.55, repro,
2004-08-23,-1.12, -0.23, 5.83, 1.99, 1.79, 8.49, repro,
2004-08-24,-3.63, 1.64, 16.44, 2.00, 1.74, 8.18, repro,
2004-08-25,-3.43, 0.15, 14.23, 2.05, 1.81, 8.88, repro,
2004-08-26,-0.92, 0.95, 19.24, 2.03, 1.78, 8.40, repro,
2004-08-27,-1.72, -0.56, 12.27, 1.87, 1.72, 7.82, repro,
2004-08-28,0.65, 1.63, 8.00, 1.98, 1.78, 8.38, repro,
2004-08-29,-0.71, -0.24, 15.76, 2.11, 1.86, 9.14, repro,
2004-08-30,-2.98, 0.71, 12.90, 2.01, 1.82, 8.37, repro,
2004-08-31,-1.47, 0.41, 3.51, 1.92, 1.72, 7.97, repro,
2004-09-01,-0.69, 0.31, 10.38, 1.94, 1.73, 8.08, repro,
2004-09-02,1.05, -1.25, 5.17, 1.88, 1.67, 7.85, repro,
2004-09-03,-0.71, 1.36, 15.90, 1.91, 1.72, 8.00, repro,
2004-09-04,-0.99, 2.06, 16.99, 2.29, 1.91, 9.36, repro,
2004-09-05,-2.55, 1.63, 14.69, 1.91, 1.68, 7.93, repro,
2004-09-06,-1.69, -0.30, 12.54, 1.85, 1.66, 7.67, repro,
2004-09-07,-0.15, 0.67, 6.36, 1.83, 1.67, 7.71, repro,
2004-09-08,-0.28, -1.49, 3.78, 1.91, 1.70, 7.99, repro,
2004-09-09,0.03, 0.72, 5.91, 2.01, 1.78, 8.36, repro,
2004-09-10,1.45, -0.15, 1.81, 1.99, 1.83, 8.55, repro,
2004-09-11,-1.07, 1.30, 4.66, 1.83, 1.66, 7.67, repro,
2004-09-12,-1.09, 2.05, 8.60, 2.00, 1.82, 8.44, repro,
2004-09-13,-0.91, -1.15, 7.01, 1.91, 1.71, 7.98, repro,
2004-09-14,-0.85, 0.14, 8.09, 1.82, 1.66, 7.62, repro,
2004-09-15,-3.58, 0.60, 13.27, 1.88, 1.69, 7.90, repro,
2004-09-16,-2.10, 2.21, 15.11, 1.82, 1.67, 7.67, repro,
2004-09-17,-1.00, 0.25, 4.81, 1.88, 1.67, 7.87, repro,
2004-09-18,-2.79, 1.94, 8.31, 1.89, 1.68, 7.95, repro,
2004-09-19,0.20, -0.11, 3.38, 1.82, 1.67, 7.72, repro,
2004-09-20,-1.47, 1.67, -0.36, 1.82, 1.68, 7.71, repro,
2004-09-21,-1.80, 0.14, 1.21, 1.89, 1.77, 8.07, repro,
2004-09-22,-2.42, 1.94, 4.89, 1.92, 1.72, 8.12, repro,
2004-09-23,0.31, 2.26, 6.41, 2.13, 1.88, 8.89, repro,
2004-09-24,-2.89, 2.17, 6.46, 1.90, 1.69, 8.09, repro,
2004-09-25,-2.36, 3.04, 2.27, 1.97, 1.74, 8.40, repro,
2004-09-26,-1.26, 1.68, 6.16, 1.89, 1.71, 8.06, repro,
2004-09-27,-0.83, 1.42, 12.48, 1.87, 1.68, 7.89, repro,
2004-09-28,-0.29, 0.47, 7.28, 1.81, 1.66, 7.66, repro,
2004-09-29,-0.13, 0.88, 3.53, 1.82, 1.66, 7.65, repro,
2004-09-30,-1.53, 1.91, 4.65, 1.83, 1.68, 7.78, repro,
2004-10-01,-2.85, 3.05, 4.78, 1.85, 1.71, 7.91, repro,
2004-10-02,-1.94, 1.20, 9.19, 1.81, 1.68, 7.72, repro,
2004-10-03,-1.25, 1.02, 2.30, 1.80, 1.64, 7.59, repro,
2004-10-04,-2.99, 0.95, -1.84, 1.86, 1.69, 7.79, repro,
2004-10-05,-2.40, 0.54, -0.83, 1.82, 1.66, 7.76, repro,
2004-10-06,-1.61, 2.09, 3.35, 1.84, 1.67, 7.82, repro,
2004-10-07,-1.14, 1.55, 8.92, 1.87, 1.76, 7.96, repro,
2004-10-08,-2.56, 1.37, 3.11, 1.88, 1.69, 8.00, repro,
2004-10-09,-1.59, 0.35, 2.62, 2.01, 1.86, 8.75, repro,
2004-10-10,-2.78, 1.14, 3.59, 2.05, 1.93, 8.68, repro,
2004-10-11,-3.16, 1.61, 3.48, 1.86, 1.69, 7.80, repro,
2004-10-12,-3.39, 2.14, 5.69, 1.85, 1.69, 7.81, repro,
2004-10-13,-3.41, 0.67, 0.44, 1.86, 1.70, 7.87, repro,
2004-10-14,-3.61, 2.67, 13.44, 1.81, 1.64, 7.71, repro,
2004-10-15,-2.11, 1.90, 7.51, 1.86, 1.68, 8.00, repro,
2004-10-16,-3.14, 1.69, 7.29, 1.82, 1.66, 7.74, repro,
2004-10-17,-2.98, 2.07, 12.81, 1.94, 1.77, 8.25, repro,
2004-10-18,-3.66, -0.14, 13.26, 1.99, 1.79, 8.33, repro,
2004-10-19,-1.74, 2.27, 8.50, 2.03, 1.76, 8.80, repro,
2004-10-20,-4.52, 1.72, 12.53, 1.87, 1.74, 8.26, repro,
2004-10-21,-5.42, 2.98, 9.78, 1.97, 1.82, 8.26, repro,
2004-10-22,-2.42, 1.96, 14.21, 2.13, 1.92, 8.98, repro,
2004-10-23,-6.03, 4.22, 16.36, 1.91, 1.75, 8.06, repro,
2004-10-24,-2.64, 3.37, -8.67, 2.14, 2.03, 9.13, repro,
2004-10-25,-4.20, 1.27, 4.14, 1.90, 1.75, 8.06, repro,
2004-10-26,-5.06, 2.58, 6.75, 1.90, 1.75, 8.00, repro,
2004-10-27,-3.03, 1.97, 6.61, 1.86, 1.71, 7.87, repro,
2004-10-28,-4.03, 2.87, 3.08, 1.92, 1.76, 8.08, repro,
2004-10-29,-3.93, 2.02, 1.44, 1.87, 1.72, 7.91, repro,
2004-10-30,-5.20, 0.31, 12.18, 2.01, 1.81, 8.53, repro,
2004-10-31,-3.46, 2.36, 12.06, 1.96, 1.79, 8.35, repro,
2004-11-01,-5.17, 1.59, -1.66, 1.97, 1.81, 8.20, repro,
2004-11-02,0.17, -0.50, 8.25, 2.01, 1.91, 8.70, repro,
2004-11-03,-3.93, 3.32, 8.64, 2.01, 1.83, 8.55, repro,
2004-11-04,-2.92, 1.08, -5.04, 1.85, 1.68, 7.81, repro,
2004-11-05,-2.79, 1.34, -6.44, 1.94, 1.76, 8.15, repro,
2004-11-06,-1.86, 1.57, -2.52, 1.94, 1.75, 8.12, repro,
2004-11-07,-3.45, 0.72, -4.45, 1.90, 1.75, 8.10, repro,
2004-11-08,-4.01, 1.68, -4.48, 2.04, 1.82, 8.50, repro,
2004-11-09,-1.78, 1.46, -7.12, 1.93, 1.75, 8.29, repro,
2004-11-10,-2.47, 1.68, -6.06, 1.94, 1.79, 8.18, repro,
2004-11-11,-4.37, 1.71, -9.53, 2.01, 1.81, 8.52, repro,
2004-11-12,-3.62, 2.74, -4.74, 1.92, 1.74, 8.07, repro,
2004-11-13,-2.95, 1.31, -12.25, 1.84, 1.69, 7.81, repro,
2004-11-14,-1.83, 2.05, -7.54, 1.86, 1.70, 7.87, repro,
2004-11-15,-2.86, 3.42, -14.05, 1.81, 1.68, 7.78, repro,
2004-11-16,-3.76, 0.12, -9.06, 1.85, 1.70, 7.88, repro,
2004-11-17,-3.39, 1.85, -11.66, 1.82, 1.65, 7.77, repro,
2004-11-18,-3.57, 1.06, 0.65, 1.88, 1.75, 8.08, repro,
2004-11-19,-4.00, 1.32, -5.74, 1.92, 1.73, 7.89, repro,
2004-11-20,-3.86, 2.15, 10.38, 1.90, 1.69, 8.04, repro,
2004-11-21,-3.96, -0.24, -6.80, 1.94, 1.79, 8.19, repro,
2004-11-22,-4.58, 3.63, 11.91, 1.86, 1.73, 8.06, repro,
2004-11-23,-2.37, 4.14, 9.22, 1.90, 1.76, 8.11, repro,
2004-11-24,-4.45, 3.45, 10.95, 2.01, 1.87, 8.69, repro,
2004-11-25,-1.55, 2.04, 5.24, 6.67, 6.86, 36.08, repro,
2004-11-26,-3.09, 3.53, -7.82, 2.01, 1.84, 8.36, repro,
2004-11-27,-5.90, 9.39, 16.33, 2.01, 1.96, 8.54, repro,
2004-11-28,-3.72, 2.79, -3.72, 1.89, 1.76, 8.01, repro,
2004-11-29,-3.24, 2.91, -4.17, 1.87, 1.72, 7.95, repro,
2004-11-30,-3.87, 3.14, 0.32, 1.85, 1.71, 7.91, repro,
2004-12-01,-3.04, 2.78, -9.92, 2.05, 1.89, 8.63, repro,
2004-12-02,-2.17, 2.59, -6.30, 1.84, 1.72, 7.83, repro,
2004-12-03,-2.57, 2.11, -7.05, 1.83, 1.72, 7.73, repro,
2004-12-04,-2.70, 2.39, -12.36, 1.83, 1.70, 7.75, repro,
2004-12-05,-1.61, 2.50, 0.23, 1.84, 1.74, 7.87, repro,
2004-12-06,-2.67, 1.87, -5.47, 1.96, 1.76, 8.17, repro,
2004-12-07,-1.93, 1.83, -5.92, 2.08, 1.90, 8.65, repro,
2004-12-08,-2.48, 3.12, -3.65, 1.82, 1.67, 7.69, repro,
2004-12-09,-3.56, 2.55, 1.54, 2.27, 2.18, 9.50, repro,
2004-12-10,-3.54, 2.28, -1.58, 2.04, 1.80, 8.38, repro,
2004-12-11,-1.94, 2.77, -2.64, 1.90, 1.78, 8.08, repro,
2004-12-12,-1.38, 2.81, -3.28, 1.92, 1.76, 8.07, repro,
2004-12-13,-1.16, 2.21, -9.78, 1.86, 1.69, 7.91, repro,
2004-12-14,-0.20, 2.98, -17.29, 1.95, 1.87, 8.28, repro,
2004-12-15,-0.57, 1.84, -18.04, 1.93, 1.76, 8.10, repro,
2004-12-16,-1.65, 2.09, -19.52, 1.83, 1.69, 7.70, repro,
2004-12-17,0.25, 3.31, -18.42, 1.83, 1.65, 7.76, repro,
2004-12-18,0.10, 2.38, -14.25, 1.96, 1.74, 8.13, repro,
2004-12-19,1.94, 2.51, -13.51, 1.90, 1.73, 7.97, repro,
2004-12-20,1.57, 2.61, -3.67, 1.92, 1.79, 7.99, repro,
2004-12-21,-0.02, 2.98, -5.54, 1.86, 1.66, 7.69, repro,
2004-12-22,0.51, 2.35, -5.82, 2.00, 1.89, 8.32, repro,
2004-12-23,-0.38, 2.35, -14.48, 1.79, 1.63, 7.57, repro,
2004-12-24,1.10, 1.59, -7.59, 1.91, 1.72, 7.90, repro,
2004-12-25,1.88, 1.24, -11.16, 1.97, 1.84, 8.16, repro,
2004-12-26,1.93, 2.00, -13.34, 1.95, 1.81, 8.18, repro,
2004-12-27,2.42, 2.77, -15.88, 1.91, 1.73, 8.02, repro,
2004-12-28,1.72, 2.73, -11.55, 2.01, 1.84, 8.36, repro,
2004-12-29,0.67, 2.15, -11.45, 1.90, 1.75, 8.10, repro,
2004-12-30,0.45, 2.06, -12.75, 1.93, 1.77, 8.26, repro,
2004-12-31,-1.03, 2.64, -10.92, 2.54, 2.48, 10.84, repro,
2005-01-01,-0.13, 5.56, 0.48, 1.94, 1.83, 8.43, repro,
2005-01-02,-0.70, 0.95, -14.51, 1.93, 1.83, 8.27, repro,
2005-01-03,-1.54, 2.26, -8.31, 1.90, 1.75, 8.11, repro,
2005-01-04,-1.17, 1.24, -15.52, 1.88, 1.81, 8.12, repro,
2005-01-05,-3.74, 2.23, -12.80, 1.93, 1.84, 8.26, repro,
2005-01-06,-1.22, 1.00, -5.97, 2.05, 1.90, 8.81, repro,
2005-01-07,-1.10, 1.46, 4.46, 2.05, 1.93, 8.92, repro,
2005-01-08,-0.58, 1.66, -6.95, 1.90, 1.76, 8.33, repro,
2005-01-09,-0.33, 0.59, -11.49, 1.86, 1.75, 8.02, repro,
2005-01-10,-1.84, 1.24, -10.35, 1.92, 1.82, 8.43, repro,
2005-01-11,-2.90, 2.16, -4.10, 1.96, 1.88, 8.42, repro,
2005-01-12,-1.93, 2.59, -3.64, 1.93, 1.86, 8.29, repro,
2005-01-13,-3.34, 1.86, 6.33, 1.93, 1.80, 8.30, repro,
2005-01-14,-1.50, 2.02, -10.60, 1.91, 1.77, 8.30, repro,
2005-01-15,-0.77, 1.79, -21.87, 1.92, 1.78, 8.38, repro,
2005-01-16,-0.01, 1.35, -23.51, 1.89, 1.77, 8.28, repro,
2005-01-17,-0.50, 1.07, -23.80, 1.86, 1.73, 8.05, repro,
2005-01-18,-0.30, 1.51, -11.14, 1.86, 1.73, 8.12, repro,
2005-01-19,-0.36, 1.73, -15.38, 1.95, 1.78, 8.46, repro,
2005-01-20,-0.04, 1.95, -5.20, 1.97, 1.82, 8.29, repro,
2005-01-21,-0.07, 1.49, -10.70, 1.87, 1.76, 8.09, repro,
2005-01-22,-0.46, 1.82, -6.75, 1.84, 1.74, 8.12, repro,
2005-01-23,-0.27, 1.33, -6.57, 1.86, 1.72, 7.89, repro,
2005-01-24,1.04, 2.85, -8.50, 1.85, 1.74, 8.03, repro,
2005-01-25,1.04, 1.98, -5.05, 1.92, 1.77, 8.40, repro,
2005-01-26,-0.16, 1.81, -3.66, 1.91, 1.78, 8.37, repro,
2005-01-27,-0.70, 2.46, -0.48, 1.98, 1.91, 8.66, repro,
2005-01-28,-0.89, 0.92, -0.61, 1.92, 1.79, 8.37, repro,
2005-01-29,-0.21, 1.43, -7.80, 1.76, 1.63, 7.49, repro,
2005-01-30,-0.06, 2.60, -2.37, 1.87, 1.74, 8.05, repro,
2005-01-31,0.74, 1.41, -11.52, 1.85, 1.70, 7.84, repro,
2005-02-01,-1.17, 2.10, -6.39, 1.77, 1.67, 7.62, repro,
2005-02-02,-1.57, 3.17, -4.63, 1.87, 1.81, 8.22, repro,
2005-02-03,-0.86, 2.66, -7.14, 1.79, 1.68, 7.66, repro,
2005-02-04,-0.36, 1.39, -13.80, 1.78, 1.64, 7.58, repro,
2005-02-05,-1.29, 2.60, -10.45, 1.77, 1.64, 7.59, repro,
2005-02-06,-0.29, 2.39, -7.48, 1.78, 1.64, 7.58, repro,
2005-02-07,-0.42, 1.93, -5.79, 1.79, 1.72, 7.84, repro,
2005-02-08,-1.52, 2.99, -5.74, 1.80, 1.68, 7.63, repro,
2005-02-09,-2.38, 1.78, -9.16, 1.85, 1.72, 7.92, repro,
2005-02-10,-0.34, 2.18, -9.37, 1.77, 1.64, 7.50, repro,
2005-02-11,-1.34, 1.54, -11.13, 1.87, 1.72, 7.93, repro,
2005-02-12,-0.03, 2.43, -8.49, 2.48, 2.54, 11.30, repro,
2005-02-13,-1.37, 1.02, 1.67, 1.82, 1.72, 7.89, repro,
2005-02-14,-2.13, 3.10, 0.59, 1.81, 1.74, 7.79, repro,
2005-02-15,-0.53, 1.75, -5.03, 1.78, 1.66, 7.59, repro,
2005-02-16,-1.46, 1.51, -3.58, 1.77, 1.63, 7.49, repro,
2005-02-17,-0.50, 1.64, -5.30, 1.80, 1.68, 7.74, repro,
2005-02-18,-1.68, 1.76, -12.98, 1.85, 1.77, 8.16, repro,
2005-02-19,-0.67, 1.04, -10.52, 1.78, 1.68, 7.73, repro,
2005-02-20,0.02, 0.86, -3.54, 1.82, 1.71, 7.80, repro,
2005-02-21,-1.25, 0.90, -7.66, 1.87, 1.73, 8.10, repro,
2005-02-22,-0.54, 1.35, -5.08, 1.82, 1.71, 7.80, repro,
2005-02-23,0.32, -0.83, -7.08, 2.13, 2.00, 9.26, repro,
2005-02-24,-1.51, 0.61, -15.01, 1.82, 1.69, 7.80, repro,
2005-02-25,-1.29, 0.48, -10.21, 1.81, 1.71, 7.83, repro,
2005-02-26,-1.24, 0.61, -14.38, 1.81, 1.74, 7.86, repro,
2005-02-27,-1.89, 0.74, -6.39, 1.81, 1.67, 7.69, repro,
2005-02-28,-0.21, 1.35, -3.32, 1.80, 1.69, 7.72, repro,
2005-03-01,-0.51, -0.26, -10.49, 1.85, 1.79, 8.08, repro,
2005-03-02,-0.45, 1.25, -9.65, 1.84, 1.76, 8.03, repro,
2005-03-03,0.01, 1.96, -9.46, 1.82, 1.74, 7.94, repro,
2005-03-04,0.13, 1.61, -12.52, 1.81, 1.73, 7.88, repro,
2005-03-05,-0.38, 1.50, -16.60, 1.80, 1.69, 7.69, repro,
2005-03-06,0.23, -0.02, -15.79, 1.84, 1.78, 8.02, repro,
2005-03-07,-1.79, 0.70, -5.67, 1.90, 1.78, 8.25, repro,
2005-03-08,-0.65, 2.09, -10.05, 1.91, 1.95, 8.36, repro,
2005-03-09,-2.42, 1.92, -13.99, 1.87, 1.76, 8.11, repro,
2005-03-10,0.07, 1.64, -9.60, 1.80, 1.69, 7.72, repro,
2005-03-11,0.29, 1.10, -4.70, 1.83, 1.74, 7.99, repro,
2005-03-12,0.73, 1.75, -9.73, 1.83, 1.75, 8.02, repro,
2005-03-13,-0.28, 1.62, -6.14, 1.82, 1.74, 7.96, repro,
2005-03-14,-1.13, 1.73, -1.58, 1.85, 1.82, 8.08, repro,
2005-03-15,-0.82, 0.86, -12.55, 2.05, 1.91, 8.81, repro,
2005-03-16,-0.23, 1.64, -6.54, 1.83, 1.69, 7.74, repro,
2005-03-17,0.70, 1.65, -8.35, 1.82, 1.75, 7.82, repro,
2005-03-18,0.22, 1.95, -6.89, 1.80, 1.68, 7.72, repro,
2005-03-19,1.02, 2.30, -6.42, 1.80, 1.68, 7.70, repro,
2005-03-20,-0.70, 0.90, -12.31, 1.80, 1.68, 7.68, repro,
2005-03-21,-2.21, 1.99, -10.70, 1.80, 1.69, 7.69, repro,
2005-03-22,-2.44, 2.52, 1.76, 1.88, 1.81, 8.07, repro,
2005-03-23,1.35, 2.16, -4.74, 1.78, 1.65, 7.60, repro,
2005-03-24,0.35, 1.65, -6.97, 1.80, 1.67, 7.69, repro,
2005-03-25,0.25, 3.46, -2.61, 1.84, 1.71, 7.79, repro,
2005-03-26,1.04, 1.88, -9.32, 2.22, 2.16, 9.45, repro,
2005-03-27,-1.02, 1.42, -6.71, 1.84, 1.74, 7.87, repro,
2005-03-28,0.67, 2.21, -5.23, 1.80, 1.68, 7.72, repro,
2005-03-29,0.82, 2.98, 2.98, 1.84, 1.73, 7.86, repro,
2005-03-30,-1.09, 2.89, -0.67, 1.80, 1.69, 7.67, repro,
2005-03-31,0.70, 2.98, 1.04, 1.87, 1.73, 7.93, repro,
2005-04-01,-0.84, 1.54, 1.50, 1.83, 1.74, 7.99, repro,
2005-04-02,0.75, 2.72, -7.91, 1.81, 1.69, 7.79, repro,
2005-04-03,0.91, 2.01, -4.84, 1.82, 1.73, 7.74, repro,
2005-04-04,-0.30, 3.30, -2.38, 1.94, 1.86, 8.21, repro,
2005-04-05,0.31, 2.70, -2.34, 1.89, 1.80, 8.00, repro,
2005-04-06,-1.10, 4.26, 6.10, 2.05, 1.99, 8.80, repro,
2005-04-07,-0.43, 1.72, -5.36, 1.85, 1.77, 7.90, repro,
2005-04-08,0.45, 1.96, -9.30, 1.89, 1.76, 8.00, repro,
2005-04-09,-0.18, 4.36, 2.64, 1.92, 1.78, 8.25, repro,
2005-04-10,-1.23, 2.62, -1.88, 1.88, 1.84, 8.11, repro,
2005-04-11,-0.87, 1.64, -4.65, 2.02, 1.90, 8.79, repro,
2005-04-12,-1.82, 2.42, -7.96, 1.87, 1.79, 8.05, repro,
2005-04-13,0.15, 2.87, -2.64, 1.87, 1.78, 8.03, repro,
2005-04-14,-0.09, 2.37, -4.99, 1.94, 1.91, 8.30, repro,
2005-04-15,0.82, 2.78, -13.84, 1.92, 1.86, 8.22, repro,
2005-04-16,0.92, 3.51, -14.52, 1.89, 1.80, 8.15, repro,
2005-04-17,1.28, 2.02, -8.75, 1.85, 1.75, 7.93, repro,
2005-04-18,0.52, 1.71, -8.10, 1.87, 1.81, 8.09, repro,
2005-04-19,0.80, 3.95, -1.30, 1.92, 1.85, 8.31, repro,
2005-04-20,0.49, 4.82, -3.72, 2.06, 1.96, 8.44, repro,
2005-04-21,0.82, 1.72, -7.28, 1.86, 1.80, 8.01, repro,
2005-04-22,0.37, 3.02, 0.78, 1.85, 1.76, 7.98, repro,
2005-04-23,0.23, 1.43, -2.91, 1.80, 1.68, 7.73, repro,
2005-04-24,0.73, 2.05, -3.37, 1.97, 1.91, 8.25, repro,
2005-04-25,-0.96, 2.33, 5.33, 1.85, 1.72, 7.88, repro,
2005-04-26,-0.68, 2.27, 5.20, 1.90, 1.80, 8.15, repro,
2005-04-27,1.27, 2.40, -4.86, 1.82, 1.68, 7.73, repro,
2005-04-28,0.54, 3.04, 2.03, 2.25, 2.23, 9.78, repro,
2005-04-29,0.65, 3.67, 0.79, 1.91, 1.82, 8.15, repro,
2005-04-30,0.80, 1.22, -4.76, 1.84, 1.72, 7.83, repro,
2005-05-01,-0.18, 2.32, -1.63, 1.91, 1.82, 8.08, repro,
2005-05-02,0.59, 3.28, 0.16, 1.84, 1.73, 7.93, repro,
2005-05-03,-0.06, 3.83, -0.08, 1.83, 1.72, 7.77, repro,
2005-05-04,1.03, 2.03, -5.57, 1.78, 1.65, 7.57, repro,
2005-05-05,0.55, 2.59, -8.91, 1.80, 1.65, 7.61, repro,
2005-05-06,0.20, 2.96, -1.08, 1.79, 1.67, 7.64, repro,
2005-05-07,0.45, 4.22, 1.12, 1.84, 1.75, 7.92, repro,
2005-05-08,0.65, 3.37, 4.35, 1.85, 1.71, 7.85, repro,
2005-05-09,0.96, 3.38, -3.21, 1.84, 1.70, 7.80, repro,
2005-05-10,0.78, 1.41, 2.71, 1.94, 1.78, 8.15, repro,
2005-05-11,-2.14, 2.48, 7.18, 2.15, 2.09, 9.22, repro,
2005-05-24,4.23, 1.09, 13.06, 2.97, 2.57, 12.31, repro,
2005-05-25,0.76, 3.91, 8.50, 1.95, 1.81, 8.50, repro,
2005-05-26,2.17, 2.56, 4.42, 1.89, 1.74, 8.01, repro,
2005-05-27,-0.58, 2.59, 16.73, 1.95, 1.82, 8.27, repro,
2005-05-28,1.50, 2.80, 0.96, 1.94, 1.79, 8.17, repro,
2005-05-29,-0.56, 2.43, 7.12, 1.88, 1.76, 7.99, repro,
2005-05-30,-0.02, 1.50, 19.09, 2.01, 1.77, 8.50, repro,
2005-05-31,1.73, 3.25, 1.47, 1.90, 1.87, 8.40, repro,
2005-06-01,0.27, 2.61, 12.79, 1.83, 1.70, 7.85, repro,
2005-06-02,-1.13, 2.21, 6.49, 1.82, 1.67, 7.69, repro,
2005-06-03,-0.29, 2.68, 6.28, 1.84, 1.69, 7.84, repro,
2005-06-04,-0.19, 3.56, 7.35, 1.86, 1.71, 7.92, repro,
2005-06-05,0.75, 3.61, 8.35, 1.87, 1.79, 8.11, repro,
2005-06-06,-2.43, 2.52, 10.43, 1.96, 1.76, 8.42, repro,
2005-06-07,0.39, 5.05, 3.58, 2.03, 1.95, 8.62, repro,
2005-06-08,0.07, 2.69, 10.23, 1.83, 1.69, 7.87, repro,
2005-06-09,-0.47, 1.36, -0.12, 1.85, 1.71, 7.89, repro,
2005-06-10,0.13, 3.36, 9.63, 1.88, 1.81, 8.14, repro,
2005-06-11,-0.02, 3.34, 4.48, 1.83, 1.67, 7.75, repro,
2005-06-12,-0.65, 4.94, 6.41, 1.90, 1.73, 8.09, repro,
2005-06-13,0.41, 3.15, 8.12, 1.91, 1.75, 8.22, repro,
2005-06-14,-1.46, 4.61, 3.26, 2.23, 2.13, 9.54, repro,
2005-10-01,-1.77, 3.02, 12.98, 1.90, 1.70, 7.95, repro,
2005-10-02,-2.50, 2.04, 11.15, 1.99, 1.82, 8.25, repro,